Погода в Хамнее

Россия / Республика Бурятия     50°24′09″N   103°52′03″E
темп.,
°C
ветер,
м/с
пор.,
м/с
влажн.,
%
обл.,
%
осадки,
мм/ч
давл.,
гПа
погр.,
м
25 июня, пт
пт2523:00+9ссз2197100 0.0 100724
02:00+8ссз2297100 0.0 100830
05:00+8зсз11975 0.0 100819
08:00+13зсз11830 0.0 1007272
11:00+22юз11430 0.0 1005918
14:00+26зсз12280 0.0 10022052
17:00+27всв12263 0.0 10012488
20:00+21вюв11491 0.0 100211
26 июня, сб
сб2623:00+14в11710 0.0 100511
02:00+12св01860 0.0 100610
05:00+10с11925 0.0 100610
08:00+18ююв116149 0.0 1005262
11:00+25ююв11377 0.0 1004916
14:00+28юв332687 0.0 10022013
17:00+28в453135 0.0 10001899
20:00+14ссв3695100 2.4 1007202
27 июня, вс
вс2723:00+12ссз1398100 2.4 1011132
02:00+12всв2299100 14.1 1011120
05:00+11сз2298100 0.3 101046
08:00+13ссз1291100 0.4 1011306
11:00+18сз1167100 0.1 1009931
14:00+19с226388 0.3 1008963
17:00+19ссв336784 0.2 1007597
20:00+17с2375100 0.3 1007218
28 июня, пн
пн2823:00+13ссв2287100 0.8 100853
02:00+12ссв2293100 1.0 100730
05:00+12св2299100 2.0 100669
08:00+13с1294100 6.6 1005341
11:00+13ссз1295100 1.9 1005337
14:00+13ссв2395100 2.6 1004285
17:00+11ссв2493100 1.9 1004436
20:00+9ссз3895100 3.6 1006613
29 июня, вт
вт2923:00+8сз2594100 0.1 1007234
02:00+7зсз2397100 1.0 1007191
05:00+8з2498100 3.1 1007228
08:00+8зсз1298100 7.0 1008172
11:00+9зсз1397100 3.4 1008278
14:00+9зсз2595100 5.5 1010428
17:00+8зсз2694100 0.7 1011480
20:00+8зсз2495100 0.8 1011143